GEFSSE_500_meanwind_222.txt.gz
Wind_Speed
7 8 8 8 7 7 8 8 8 8 8 9 9 10 10 11 11 10 10 10 10 10 9 9 9 9 10 10 10 10 10 11 11 12 12 12 12 13 13 14 14 14 14
9 9 9 9 8 9 9 9 9 9 9 10 10 11 11 11 11 11 11 10 11 11 11 10 10 11 11 11 11 11 12 12 13 13 13 13 13 14 14 15 15 15 15
9 9 9 10 10 10 10 10 10 11 11 10 11 11 11 11 12 12 12 11 11 11 11 11 11 12 12 13 13 13 13 14 14 15 15 15 15 15 15 16 16 16 16
9 9 10 10 11 11 11 11 11 11 11 11 11 12 12 12 12 12 12 12 12 12 12 12 13 13 13 14 14 14 15 15 15 16 16 16 16 16 16 17 17 17 17
10 10 11 12 12 12 12 12 13 12 11 12 12 13 13 13 13 13 13 13 13 13 13 13 14 14 14 15 15 15 16 16 16 16 17 17 17 17 18 18 18 19 18
11 12 12 13 13 13 13 13 12 12 12 12 13 14 14 14 14 14 14 14 14 14 15 15 15 16 15 15 16 17 17 17 17 18 19 18 18 18 18 18 19 20 19
13 13 13 13 13 13 13 14 12 13 13 13 14 14 15 15 15 15 15 15 16 16 16 16 17 17 17 17 17 18 19 19 19 19 20 20 19 20 20 19 19 20 20
14 14 14 13 14 14 14 14 14 15 15 15 15 16 16 16 17 16 16 17 17 17 17 17 18 18 18 18 19 19 20 20 20 21 21 21 21 21 21 21 20 20 21
14 14 14 14 14 14 14 14 15 16 16 17 17 18 17 17 17 17 18 18 18 19 19 19 19 19 20 20 20 20 21 21 22 22 22 22 22 22 22 22 21 22 22
15 15 15 15 14 15 15 16 17 17 18 18 19 19 18 18 18 19 19 20 20 20 20 20 20 20 20 20 21 21 22 23 23 23 23 22 22 23 23 22 22 23 23
16 16 16 16 16 17 17 18 18 19 20 21 21 20 20 20 20 20 20 21 21 21 22 21 22 21 21 21 21 22 22 23 23 23 23 23 22 23 24 23 23 23 24
17 17 17 18 18 18 19 20 20 21 22 23 23 22 22 21 21 21 21 21 22 23 23 24 23 23 22 22 22 23 23 23 23 23 24 23 24 24 24 25 25 25 24
18 18 18 19 19 20 20 21 22 23 23 23 24 23 23 23 22 22 22 22 23 24 24 24 24 24 24 24 24 24 23 24 23 23 23 23 24 25 25 25 26 26 25
19 19 19 19 19 20 21 23 23 24 24 24 24 24 24 24 23 24 23 24 24 25 24 24 24 24 25 26 25 25 24 24 24 24 24 24 24 24 25 26 25 26 26
19 19 20 20 20 21 22 23 24 24 25 25 26 26 25 24 24 25 26 26 26 25 25 25 26 26 27 27 27 26 26 25 25 25 25 25 24 25 25 25 25 26 25
20 20 20 21 21 22 22 23 24 25 25 26 26 27 26 25 26 26 27 26 27 27 27 27 27 27 27 28 27 27 27 26 26 26 26 26 26 25 25 25 25 26 26
20 20 21 21 22 22 22 23 24 25 25 26 26 27 26 26 27 27 27 27 27 28 28 28 28 28 28 28 28 28 27 27 26 26 26 26 26 25 25 25 25 25 26
19 20 21 21 22 23 24 24 24 25 25 25 26 26 27 27 28 28 28 28 28 28 29 29 29 29 29 28 28 27 27 26 26 26 26 26 25 25 25 26 26 26 26
19 21 22 23 23 23 24 25 25 25 25 25 26 26 27 28 28 28 29 29 28 29 30 30 29 29 28 28 27 27 27 26 26 26 26 26 26 26 25 25 25 25 26
20 21 23 23 24 24 25 25 27 27 26 26 27 27 28 28 28 28 28 28 29 29 30 30 29 28 28 28 28 27 27 27 26 26 26 26 26 26 26 25 25 25 25
22 23 23 24 25 25 26 26 27 27 27 27 28 27 28 28 28 28 27 28 30 31 30 29 28 28 28 28 27 27 27 27 27 27 26 26 26 26 25 25 26 26 25
22 23 24 25 26 26 27 27 28 28 28 28 28 27 27 28 28 27 29 29 29 29 28 28 28 28 29 29 28 28 27 27 27 27 26 25 25 26 26 26 26 26 26
24 24 25 25 26 27 27 27 27 28 28 28 29 29 29 29 28 28 28 28 28 29 28 27 28 28 29 28 27 27 26 26 25 25 25 25 25 25 26 26 26 26 26
24 25 25 26 26 26 26 27 27 27 27 28 28 28 28 29 28 28 28 28 29 29 28 28 28 29 29 28 28 28 27 26 25 25 25 26 25 25 25 26 26 27 26
24 24 24 25 25 25 25 26 26 27 27 27 27 27 27 27 27 27 29 29 29 28 29 29 29 29 28 27 27 27 26 26 26 27 25 25 26 25 25 25 25 25 26
24 24 24 25 25 24 25 25 26 26 26 26 26 26 27 26 26 27 28 28 28 28 27 27 27 27 26 27 26 26 26 26 26 26 26 25 25 25 25 25 25 26 26

GEFSSE_500_meanwind_228.txt.gz
Wind_Speed
5 5 5 5 6 6 7 8 8 9 9 9 9 10 11 11 12 12 12 13 12 12 12 12 12 12 12 13 13 12 12 12 12 12 13 12 12 13 13 14 14 14 15
6 5 6 6 7 7 8 8 9 9 9 9 10 10 11 12 12 13 13 13 13 13 13 13 13 12 13 13 13 14 13 13 13 13 13 14 14 13 13 14 15 15 16
8 6 6 7 7 7 8 8 9 9 9 9 10 11 11 12 13 13 14 14 14 14 14 14 14 14 14 14 14 14 15 15 15 15 15 15 15 15 15 15 16 16 17
7 7 7 7 8 8 8 9 9 10 10 11 11 12 12 13 14 14 15 15 15 15 15 15 15 15 15 15 15 16 16 17 16 16 16 16 16 17 17 16 16 17 18
8 8 9 9 9 9 10 9 10 11 11 12 12 13 13 14 15 15 16 16 16 16 16 16 16 16 17 17 17 17 17 18 18 17 17 18 18 17 17 18 18 18 19
9 9 10 11 11 11 11 11 11 12 12 13 13 14 14 15 15 16 16 17 17 17 17 17 17 17 18 18 18 18 19 18 18 18 18 19 19 19 19 18 19 19 20
10 11 12 12 12 13 13 13 13 13 14 14 14 15 15 15 16 16 16 17 17 18 18 18 18 19 19 19 19 19 19 19 19 19 19 20 20 21 21 21 21 21 21
11 13 13 14 14 14 14 14 14 14 15 15 15 16 16 16 16 16 17 17 18 18 18 19 19 19 19 19 19 20 20 20 21 21 21 20 21 21 21 22 22 22 22
13 13 14 14 14 14 15 14 15 15 15 16 16 16 17 17 17 18 18 18 19 19 19 19 19 19 20 20 20 20 21 21 21 21 21 21 21 21 22 22 22 23 23
14 14 14 14 14 14 15 15 14 15 16 16 17 18 18 19 19 19 19 20 20 20 20 20 20 20 20 21 21 21 21 22 22 22 22 22 22 22 22 22 23 23 23
15 15 15 15 15 16 16 16 16 16 17 18 18 19 20 20 20 20 20 20 21 21 21 21 21 21 21 21 22 23 23 22 23 23 23 23 23 23 23 24 24 24 23
14 15 15 16 17 17 17 16 17 17 18 19 20 20 21 22 22 21 21 21 21 22 21 22 22 22 23 23 24 24 24 23 23 24 23 23 23 23 24 24 25 25 24
14 15 16 17 18 18 18 18 17 18 19 20 20 21 21 22 22 22 22 22 23 23 23 23 23 24 24 25 25 25 25 25 24 24 24 24 24 24 25 25 25 25 26
14 15 16 17 19 19 19 19 20 20 20 20 21 22 22 22 23 23 23 23 23 23 23 24 25 25 25 26 26 25 25 24 25 25 24 25 24 25 25 26 26 26 26
15 16 17 18 19 20 20 21 21 21 21 22 22 23 23 23 24 24 23 23 24 24 24 25 25 25 26 26 26 26 26 25 25 26 25 25 24 24 26 26 26 27 27
16 17 17 18 19 19 20 20 20 21 22 22 23 24 23 24 24 24 24 24 25 26 26 26 26 27 27 27 27 26 26 26 26 25 26 26 26 26 26 26 26 26 27
17 18 18 19 20 19 20 20 20 21 22 23 24 24 23 23 24 24 25 25 24 25 26 26 27 27 27 27 27 27 27 27 26 26 26 26 27 27 26 26 26 26 27
19 19 19 20 20 20 20 20 21 21 22 23 24 24 23 23 24 24 24 25 25 25 26 26 26 27 27 27 27 27 27 27 27 26 26 26 26 27 26 26 27 26 27
20 20 19 19 21 21 22 22 23 24 24 24 24 24 23 23 24 24 25 25 25 26 26 26 26 26 27 28 27 26 26 26 27 26 26 26 26 26 26 27 28 27 26
21 20 19 19 21 22 23 24 25 25 24 24 24 24 24 24 24 24 24 24 25 26 26 26 27 27 27 27 26 26 26 26 26 26 26 26 26 26 26 27 27 27 27
20 19 19 19 20 21 23 24 25 25 25 24 24 24 24 24 25 25 25 26 26 26 26 27 28 28 27 27 26 26 26 25 25 26 26 26 25 26 27 27 27 27 27
20 19 20 19 21 22 23 24 25 25 25 25 24 24 25 25 25 25 25 26 26 27 27 28 28 27 26 26 26 26 25 25 25 26 26 26 26 26 27 28 27 26 27
19 20 21 20 21 23 24 24 24 25 25 25 25 25 25 25 26 27 26 26 27 27 27 27 26 26 25 25 26 26 25 24 25 26 26 27 27 26 26 26 26 26 27
20 21 21 21 21 21 22 22 23 24 24 24 25 25 25 26 26 26 26 26 26 26 26 25 25 24 24 25 26 26 26 25 25 25 26 26 27 26 26 27 27 27 27
21 22 21 21 21 21 21 22 24 24 23 24 24 25 25 25 25 25 25 25 25 24 24 24 24 24 23 24 25 25 26 26 27 27 26 26 27 27 27 27 27 28 28
21 21 21 22 22 22 22 23 23 23 23 23 24 23 24 24 25 24 24 23 23 23 23 22 22 22 22 24 24 25 26 26 27 28 27 27 27 27 27 27 27 28 29

GEFSSE_500_meanwind_234.txt.gz
Wind_Speed
6 6 6 6 6 6 5 5 5 6 6 7 7 7 7 8 8 9 9 9 10 11 11 11 11 11 11 11 11 11 11 11 11 11 12 12 12 12 12 12 13 13 13
6 6 6 6 6 6 6 6 6 6 6 7 7 7 8 8 9 10 11 11 11 12 11 11 12 12 12 12 12 12 12 12 12 12 13 13 14 14 14 14 14 14 15
6 6 6 6 7 7 7 7 7 7 7 7 8 8 9 9 10 11 12 13 13 13 13 13 13 13 13 13 13 13 13 13 13 14 14 15 15 15 15 15 15 16 16
6 6 6 6 7 8 8 8 8 8 8 8 9 10 10 11 12 12 13 13 14 14 14 14 14 14 14 14 14 14 14 14 15 15 15 16 16 16 16 16 17 17 17
7 7 7 7 8 8 9 10 10 10 10 10 10 11 12 12 13 13 14 14 14 15 14 15 15 15 15 15 15 15 15 16 16 16 16 17 17 18 17 18 18 18 18
9 8 8 8 8 9 10 11 11 11 11 11 12 12 13 14 14 14 15 15 15 15 15 15 16 17 17 16 17 17 17 17 17 18 18 18 18 18 18 19 19 19 19
9 9 9 9 10 10 11 11 12 12 12 13 14 14 15 15 15 15 16 16 16 16 17 17 18 18 18 18 18 18 18 18 18 19 19 19 19 19 19 20 20 20 19
10 10 11 11 11 12 12 12 12 13 13 14 15 15 15 16 16 17 17 17 17 18 18 19 19 20 19 19 19 19 19 20 20 20 20 20 20 20 20 20 20 20 20
11 11 12 11 12 13 13 13 13 14 14 15 16 16 16 17 17 18 18 19 20 20 20 20 20 20 20 20 20 20 21 21 21 21 21 22 22 22 22 21 21 21 21
12 12 12 13 13 14 15 14 14 15 15 16 16 17 18 18 19 19 20 21 22 22 21 21 21 21 21 21 21 21 22 22 22 23 23 23 24 23 23 23 22 22 22
13 14 14 14 15 15 15 15 15 16 16 17 17 18 19 20 20 21 21 21 22 22 22 23 22 22 23 23 22 23 23 24 23 24 25 24 24 24 24 24 24 24 24
14 14 15 15 15 15 16 16 16 17 17 17 18 19 20 21 21 21 22 22 22 23 23 24 24 24 24 25 25 25 25 25 26 25 25 25 25 25 25 25 25 25 25
14 14 15 16 16 16 17 17 17 17 18 18 18 20 20 21 22 22 22 23 23 24 24 25 26 26 26 26 26 27 27 27 27 27 26 26 26 26 26 26 26 26 26
14 13 14 15 16 16 17 18 18 18 19 19 19 20 21 22 22 23 24 25 25 25 26 27 27 28 29 28 28 28 28 28 28 28 27 27 27 27 27 26 26 26 26
15 15 15 16 17 17 19 20 20 20 19 19 19 20 22 23 23 23 24 24 25 26 27 28 28 28 29 29 29 29 29 28 28 29 29 29 28 28 28 28 27 27 27
16 16 15 16 17 18 19 20 21 21 21 21 21 21 23 23 24 24 25 25 25 26 27 28 28 28 29 29 29 29 29 29 29 29 29 28 28 28 28 28 28 28 27
17 17 16 17 18 19 20 21 21 22 22 22 23 23 23 24 24 25 26 26 26 27 27 28 28 28 29 29 29 28 29 29 29 29 29 29 28 29 28 28 29 28 28
17 17 18 19 19 20 21 21 22 22 23 24 24 25 24 25 25 25 26 27 27 27 27 27 28 29 29 30 30 29 29 29 28 28 29 29 29 29 28 28 29 29 29
17 18 18 19 19 20 20 21 21 21 23 24 25 26 26 26 26 26 26 27 27 27 27 27 28 28 29 30 31 30 30 29 28 28 28 29 29 29 29 29 29 29 29
16 17 18 19 19 19 20 21 21 22 23 24 24 25 26 26 26 26 27 27 27 27 26 27 28 28 28 28 29 29 30 29 28 28 28 28 29 29 29 29 29 29 29
17 18 19 19 18 18 19 20 21 22 23 23 23 24 25 25 26 26 27 27 26 26 26 27 28 27 27 27 27 27 27 27 28 28 28 28 28 29 29 29 28 29 29
18 18 18 18 18 18 19 20 21 22 22 22 23 23 23 24 24 25 25 25 26 25 25 26 26 25 25 26 25 25 26 26 27 27 27 28 28 29 30 30 29 29 30
17 17 18 18 18 19 20 20 20 20 21 22 22 22 22 22 23 24 24 24 24 24 24 25 25 24 24 24 24 25 24 24 25 26 27 29 29 30 30 30 30 30 30
17 18 19 20 19 20 20 20 19 19 20 21 22 22 22 23 23 23 23 22 22 23 24 23 23 24 24 24 24 25 25 26 26 25 26 28 29 30 30 30 30 30 29
19 20 21 21 20 20 19 19 19 20 21 22 22 22 22 23 23 23 23 22 22 22 22 22 23 23 25 25 24 25 26 27 27 27 26 27 29 29 30 30 30 29 28
20 22 22 22 21 20 20 20 20 20 21 22 22 22 22 23 23 23 23 23 22 22 22 23 24 24 25 25 25 26 27 28 28 27 27 27 28 28 28 28 28 29 29

GEFSSE_500_meanwind_240.txt.gz
Wind_Speed
3 3 3 3 3 3 4 4 4 5 5 5 4 4 4 4 4 4 4 4 5 5 6 6 6 6 6 7 7 7 8 8 8 8 9 9 10 10 10 11 11 12 12
5 4 4 4 4 4 4 5 5 6 6 6 5 5 5 5 5 6 6 6 6 6 7 7 7 8 8 8 8 9 9 9 9 10 10 10 11 11 11 12 12 13 13
6 6 6 6 6 5 5 6 6 6 6 6 6 6 6 7 7 7 7 7 7 8 8 8 8 9 9 10 10 10 10 10 11 11 11 12 12 12 12 13 13 14 14
7 7 7 7 7 7 7 7 7 7 8 8 7 8 8 8 8 8 8 8 8 9 8 9 9 10 10 11 12 12 12 12 12 12 12 13 13 13 13 14 14 15 16
8 8 8 8 8 8 8 8 9 9 9 9 9 9 9 10 10 10 10 9 9 10 10 10 10 11 11 12 13 13 13 13 13 14 14 14 15 14 15 15 15 16 16
10 9 9 9 9 9 9 9 10 10 10 10 10 10 10 11 11 11 11 11 11 11 11 12 12 12 13 13 14 14 15 15 15 15 15 15 16 16 16 16 16 17 17
10 10 11 11 11 10 10 11 11 11 11 11 11 12 12 12 12 12 12 12 12 12 13 13 13 14 14 14 14 15 15 15 16 16 16 17 17 17 17 18 18 18 18
11 12 12 11 12 12 12 12 12 12 12 12 12 13 13 13 13 13 13 14 14 14 15 15 15 16 16 16 16 16 17 17 17 18 17 18 18 18 19 19 20 20 20
12 12 12 12 13 12 12 13 14 14 13 13 14 14 15 15 14 15 15 16 16 16 17 18 18 18 18 17 18 18 19 19 19 19 19 19 20 20 20 21 22 22 21
13 12 12 13 13 13 14 14 14 15 15 14 14 15 16 16 16 17 17 18 18 18 18 19 19 19 19 19 19 20 20 21 21 21 21 21 21 21 22 22 22 22 23
14 14 14 15 15 15 15 15 15 15 16 15 16 16 17 18 18 18 18 19 19 19 19 19 20 20 20 21 22 22 22 22 23 23 22 22 22 23 23 23 23 23 23
15 15 16 16 16 17 17 17 16 16 16 16 17 18 18 19 19 18 19 20 20 20 20 21 21 22 22 23 23 24 24 24 24 24 24 23 24 24 24 24 24 24 24
15 16 17 17 17 18 18 18 17 17 17 17 18 19 18 19 19 19 20 21 21 21 21 22 23 23 24 24 24 24 24 25 25 25 25 25 24 24 24 24 25 25 25
16 16 17 18 18 19 19 19 18 18 18 18 18 19 19 19 20 20 21 21 21 21 22 23 23 24 25 24 24 25 25 25 26 26 26 26 26 25 25 25 25 25 25
15 15 16 17 18 19 19 19 19 19 19 18 18 19 19 20 21 21 22 22 22 23 23 23 23 24 25 25 25 25 26 26 27 27 27 27 27 27 28 27 26 26 26
15 15 16 17 18 19 19 19 19 19 19 20 20 20 21 22 22 23 23 23 23 24 24 24 24 24 25 26 26 27 27 27 28 28 28 27 27 28 28 29 28 28 27
16 16 17 18 18 19 19 19 20 20 20 21 21 21 22 22 23 24 24 24 24 24 25 25 24 25 25 25 26 27 27 27 28 28 29 29 29 28 29 29 29 28 28
16 17 18 17 17 17 18 19 20 20 21 22 22 23 23 23 23 25 25 25 24 24 24 24 24 25 25 25 26 26 27 26 27 28 29 29 29 28 28 28 28 29 28
17 17 17 17 17 18 19 19 21 21 21 22 22 22 23 23 24 24 24 24 24 24 24 24 24 24 25 25 25 26 26 26 26 27 28 29 29 29 28 28 29 29 29
17 17 17 17 18 19 20 20 20 20 20 21 21 21 22 23 22 22 23 23 23 23 24 24 24 24 24 25 25 25 26 26 26 26 27 27 28 29 29 29 28 30 30
17 17 18 18 19 19 19 19 20 19 20 20 20 21 22 22 22 23 23 24 24 24 23 23 23 23 24 25 25 25 26 27 27 26 26 27 27 28 29 29 29 29 30
16 17 17 17 17 19 19 19 19 19 19 19 19 20 21 21 21 23 23 24 24 24 23 23 23 23 23 24 24 25 25 25 26 26 27 27 28 29 29 29 29 29 30
16 17 17 17 18 19 19 19 19 19 19 19 20 20 19 20 21 22 23 23 23 24 24 24 23 24 24 24 24 25 25 24 25 26 27 28 28 28 29 29 29 29 30
16 16 16 17 18 18 17 18 19 18 18 19 20 19 19 20 21 22 22 23 23 23 24 24 24 23 24 24 24 24 25 25 25 25 26 27 28 28 28 29 30 30 30
16 16 16 17 18 17 17 17 18 18 19 19 19 20 20 21 21 23 23 24 24 24 24 23 23 23 24 24 24 25 25 26 26 26 26 26 27 27 27 28 29 29 30
16 16 17 18 18 17 17 17 18 18 18 19 19 20 20 21 22 23 23 23 23 23 23 22 23 24 24 24 25 25 25 25 26 26 26 26 27 27 28 28 29 30 31